DW7680 Weather Reports


Display with metric or nautical units.
time (UTC)temp
F
wind
direction
speed
MPH
gust
MPH
rain 1hr
in
rain 24hr
in
rain mn
in
humidity
%
barometer
mb
20260502163002 40 170 1.0 6.0 0.00 0.07 0.00 82 1027.7
20260502161502 39 123 4.0 7.0 0.00 0.07 0.00 83 1027.7
20260502151501 38 107 3.0 7.0 0.00 0.09 0.00 85 1027.3
20260502123002 36 86 1.0 2.0 0.00 0.34 0.00 92 1025.6
20260502121503 35 86 0.0 2.0 0.00 0.34 0.00 92 1025.4
20260502114503 35 86 0.0 0.0 0.00 0.55 0.00 92 1024.8
20260502113003 35 86 0.0 0.0 0.00 0.55 0.00 92 1024.8
20260502111503 35 86 0.0 0.0 0.00 0.55 0.00 92 1024.8
20260502110004 35 86 0.0 0.0 0.00 0.55 0.00 92 1025.0
20260502104505 35 86 0.0 0.0 0.00 1.44 0.00 92 1025.0
20260502103003 35 86 1.0 2.0 0.00 1.44 0.00 92 1024.8
20260502101503 35 86 0.0 2.0 0.00 1.44 0.00 92 1024.7
20260502091509 36 46 0.0 3.0 0.00 1.44 0.00 92 1024.4
20260502070007 36 93 4.0 7.0 0.00 1.44 0.00 92 1023.9
20260502064510 36 65 1.0 3.0 0.00 1.44 0.00 91 1024.0
20260502063005 36 65 1.0 3.0 0.00 1.44 0.00 92 1024.0
20260502061504 36 15 2.0 4.0 0.00 1.44 0.00 92 1024.2
20260502060007 36 34 2.0 4.0 0.00 1.44 0.00 91 1024.2
20260502054512 36 74 1.0 2.0 0.00 1.44 1.44 91 1024.1
20260502053004 36 74 1.0 5.0 0.00 1.44 1.44 91 1023.9
20260502051508 36 82 3.0 5.0 0.00 1.44 1.44 91 1023.9
20260502050005 36 76 2.0 3.0 0.00 1.44 1.44 91 1023.9
20260502044504 36 67 2.0 5.0 0.00 1.44 1.44 91 1023.8
20260502043004 36 75 2.0 4.0 0.00 1.44 1.44 91 1023.5
20260502041505 36 87 2.0 7.0 0.00 1.44 1.44 91 1023.2
20260502040007 36 50 2.0 4.0 0.00 1.44 1.44 91 1023.2
20260502034505 36 44 2.0 7.0 0.00 1.44 1.44 91 1022.9
20260502033005 36 40 3.0 7.0 0.00 1.44 1.44 91 1022.9
20260502031504 36 62 2.0 6.0 0.00 1.44 1.44 91 1022.6
20260502030005 37 81 2.0 6.0 0.00 1.44 1.44 91 1022.0
20260502024502 37 78 4.0 8.0 0.00 1.44 1.44 90 1021.6
20260502023003 37 75 3.0 6.0 0.00 1.44 1.44 91 1021.5
20260502021502 37 71 2.0 3.0 0.00 1.44 1.44 91 1021.3
20260502020003 37 86 2.0 6.0 0.01 1.44 1.44 91 1021.3
20260502014504 37 38 4.0 10.0 0.01 1.44 1.44 90 1021.0
20260502013002 37 69 3.0 7.0 0.01 1.44 1.44 90 1020.6
20260502011502 37 50 4.0 11.0 0.01 1.44 1.44 90 1020.0
20260502010005 37 71 4.0 9.0 0.00 1.43 1.43 90 1019.6
20260502004505 37 33 3.0 8.0 0.00 1.43 1.43 90 1019.6
20260502003012 37 24 3.0 9.0 0.00 1.43 1.43 90 1019.4
20260502001504 37 42 3.0 11.0 0.00 1.43 1.43 90 1019.2
20260502000005 38 90 6.0 11.0 0.00 1.43 1.43 89 1018.8
20260501234503 38 76 5.0 13.0 0.00 1.43 1.43 89 1018.5
20260501233003 38 55 6.0 14.0 0.00 1.43 1.43 89 1018.2
20260501231503 38 45 8.0 13.0 0.00 1.43 1.43 89 1018.0
20260501230002 39 32 6.0 12.0 0.00 1.43 1.43 89 1017.8
20260501224503 39 72 8.0 14.0 0.00 1.43 1.43 88 1017.5
20260501223002 39 84 5.0 14.0 0.00 1.43 1.43 88 1017.3
20260501221502 40 44 2.0 9.0 0.00 1.43 1.43 88 1017.2
20260501220007 40 70 5.0 14.0 0.00 1.43 1.43 87 1017.0
20260501214510 40 51 5.0 15.0 0.01 1.43 1.43 87 1017.1
20260501213003 41 61 4.0 15.0 0.01 1.43 1.43 86 1017.0
20260501211511 42 22 4.0 10.0 0.01 1.43 1.43 86 1016.9
20260501210004 42 69 3.0 8.0 0.01 1.43 1.43 88 1016.9
20260501204502 41 50 5.0 10.0 0.01 1.42 1.42 87 1016.9
20260501203002 41 22 2.0 9.0 0.01 1.42 1.42 88 1017.1
20260501201503 41 11 3.0 11.0 0.01 1.42 1.42 88 1017.1
20260501200009 40 61 5.0 12.0 0.01 1.42 1.42 88 1016.8
20260501194503 40 46 6.0 12.0 0.01 1.41 1.41 88 1016.7
20260501193003 40 19 5.0 10.0 0.02 1.41 1.41 88 1016.5
20260501191503 41 48 3.0 9.0 0.03 1.41 1.41 89 1016.4
20260501190005 40 35 6.0 12.0 0.03 1.41 1.41 88 1016.1
20260501184502 40 37 4.0 10.0 0.02 1.40 1.40 88 1016.1
20260501183002 40 13 3.0 10.0 0.01 1.39 1.39 88 1016.0
20260501181502 40 42 3.0 12.0 0.01 1.38 1.38 88 1015.8
20260501180002 40 69 4.0 10.0 0.01 1.38 1.38 88 1015.7
20260501174502 40 65 5.0 12.0 0.01 1.38 1.38 88 1015.5
20260501173002 40 360 5.0 12.0 0.01 1.38 1.38 88 1015.3
20260501171502 40 38 5.0 11.0 0.00 1.37 1.37 88 1015.2